Location: Sungai Liu
(2.3667°N, 113.8667°E)
Time: 12:58:48
(UTC+00:00)

Atlas Centaur 2 - Pass Details

Date: 20 May 2022
Orbit: 459 x 1304 km, 30.4° (Epoch: 04 July)

Event Time Altitude Azimuth Distance (km) Brightness Sun altitude
Exits shadow 21:28:53 - 212° (SSW) 3,615 5.0 -11.4°
Reaches altitude 10° 21:30:28 10° 206° (SSW) 3,203 4.8 -11.0°
Maximum altitude 21:37:21 29° 149° (SSE) 2,175 4.4 -9.4°
Drops below altitude 10° 21:44:24 10° 92° (E) 3,284 6.5 -7.8°
Sets 21:47:45 0° 82° (E) 4,202 7.8 -7.0°
